Location: Trebic
(49.2170°N, 15.8830°E)
Time: 22:54:54
(UTC+02:00)

Transit 2A Rocket - Pass Details

Date: 29 July 2019
Orbit: 590 x 913 km, 66.7° (Epoch: 24 August)

Event Time Altitude Azimuth Distance (km) Brightness Sun altitude
Rises 12:04:17 0° 311° (NW) 3,098 7.8 57.3°
Reaches altitude 10° 12:07:34 10° 290° (WNW) 2,107 7.2 57.6°
Maximum altitude 12:10:17 15° 255° (WSW) 1,719 7.0 57.8°
Drops below altitude 10° 12:12:55 10° 219° (SW) 2,004 7.5 57.9°
Sets 12:15:54 0° 196° (SSW) 2,862 8.3 58.1°
